Wind_Speed
14 13 12 13 14 14 15 18 20 21 20 17 16 14 13 13 13 12 11 10 9 8 6 5 5 5 5 5 6 6 7 8 8 9 10 10 11 11 12 13 14 16
13 11 11 12 13 12 15 21 22 20 18 15 14 13 12 12 12 11 10 10 8 7 6 5 5 5 5 5 5 6 7 8 8 9 9 10 11 11 12 13 15 16
12 10 11 12 12 13 17 21 20 18 16 15 15 14 13 12 12 11 10 9 8 7 7 6 6 6 6 6 6 6 7 7 8 9 9 10 10 11 12 13 15 15
10 10 12 13 13 17 20 20 19 17 15 16 15 13 13 12 12 11 10 9 9 8 8 8 7 7 6 6 6 7 7 8 8 9 9 9 10 11 12 13 14 14
10 11 12 12 15 21 22 20 18 17 17 16 14 13 12 12 12 11 10 10 10 9 9 9 8 8 7 7 7 7 7 8 8 8 8 9 9 10 12 12 13 14
11 12 12 14 19 22 22 19 18 18 18 15 13 13 12 13 12 12 11 11 11 10 10 9 9 8 8 8 8 8 8 8 8 8 8 8 9 10 11 12 13 14
12 13 14 18 22 23 21 19 18 18 16 13 13 13 13 12 12 12 11 11 10 10 10 10 10 9 9 8 8 8 8 7 7 7 7 8 8 9 11 12 13 13
12 14 17 21 23 22 22 21 19 16 13 12 13 13 12 12 12 11 11 10 10 10 10 11 11 10 9 9 8 8 8 7 7 7 7 7 8 10 11 12 12 12
13 16 20 23 23 23 23 22 18 15 12 12 12 11 11 12 12 11 11 11 11 11 11 12 11 10 10 9 9 8 7 7 6 6 6 7 8 10 10 11 11 12
17 19 22 24 23 24 23 21 17 15 12 11 10 10 11 12 12 12 12 12 12 12 13 12 12 11 10 9 9 7 7 6 6 5 6 7 8 9 9 10 11 12
20 21 23 24 24 24 23 20 17 15 12 11 11 11 12 12 13 13 13 14 14 13 13 13 12 11 10 9 8 7 7 6 5 5 5 7 7 8 8 9 10 11
21 23 24 25 25 24 23 20 18 16 13 12 12 12 13 13 14 14 14 15 14 14 14 14 13 12 10 9 8 7 6 5 5 4 5 6 7 7 8 9 9 10
21 24 25 26 26 25 23 21 19 17 15 13 13 14 14 14 15 15 15 15 15 15 15 14 14 12 10 9 8 7 6 5 4 4 5 6 6 7 7 8 8 9
21 24 25 26 26 25 25 23 21 19 17 15 14 15 16 16 16 16 16 16 16 16 16 15 13 12 10 9 8 7 6 5 4 4 4 5 5 6 6 7 7 8
21 23 26 26 26 26 26 25 24 22 20 18 16 16 17 17 17 17 17 16 16 16 16 15 13 12 11 10 8 7 6 5 4 3 3 4 4 4 5 5 6 7
21 24 26 27 26 26 26 27 26 25 23 21 19 19 19 19 18 18 17 17 17 17 16 15 13 12 11 10 9 8 7 5 3 2 3 2 3 3 3 4 5 5
21 23 26 27 27 26 26 26 26 26 25 23 22 21 21 20 20 19 18 18 18 17 17 15 14 13 12 10 10 9 7 5 3 2 2 1 1 2 2 3 3 4
20 22 24 26 27 27 26 26 25 25 24 23 23 22 22 21 21 20 19 18 18 18 17 16 14 13 12 11 10 9 7 5 4 3 2 2 2 2 2 2 2 3
20 22 23 24 26 26 26 25 25 24 23 23 23 23 22 22 21 20 19 19 19 18 17 16 15 14 13 12 11 10 8 6 5 4 3 3 3 2 2 2 2 2
21 21 22 23 25 25 26 25 25 24 23 23 23 23 22 22 22 21 20 20 19 19 18 17 16 15 14 13 12 10 8 7 5 4 4 4 3 3 2 2 2 2
21 22 23 24 24 25 25 25 25 24 24 23 23 22 23 23 22 21 21 21 21 20 19 18 17 16 15 14 13 11 9 7 6 5 6 5 4 3 3 3 3 2
22 23 23 24 25 24 24 25 25 25 24 23 22 23 23 22 21 21 22 23 23 23 22 20 19 18 17 15 13 11 9 8 7 7 7 6 5 4 4 4 3 2
23 23 23 24 24 24 24 26 26 25 24 23 23 23 22 21 21 21 23 25 26 25 23 20 19 18 17 15 13 11 10 9 8 8 8 7 6 5 6 5 4 3
23 24 24 24 24 24 25 25 26 25 25 24 23 22 21 21 21 21 23 26 27 26 23 20 19 18 17 16 14 12 12 11 10 9 9 8 7 7 7 6 5 4
25 25 25 25 25 25 25 26 26 27 26 25 24 23 21 21 21 21 24 26 28 26 22 20 19 19 18 17 15 14 13 12 11 10 10 9 9 9 9 8 7 6
24 25 25 25 25 25 25 26 27 28 28 27 25 24 25 24 24 24 24 26 27 24 21 20 21 21 20 18 18 16 14 13 12 11 11 10 10 10 10 9 8 7
Wind_Direction
246 240 233 224 220 220 210 204 197 184 175 179 189 193 192 198 207 210 208 207 209 211 214 217 218 223 229 236 247 257 267 276 284 293 302 308 314 321 327 333 337 341
241 235 234 228 222 214 200 197 188 171 168 181 185 183 192 210 215 209 207 207 206 210 213 214 220 227 235 246 259 270 277 284 291 299 305 310 317 325 331 336 340 342
238 230 231 231 213 191 189 188 173 159 169 181 178 184 205 220 218 211 210 208 207 213 215 220 229 236 245 258 270 279 285 291 298 302 306 313 321 329 334 339 342 343
237 227 224 222 193 173 176 175 161 161 178 182 184 200 219 222 216 213 211 211 214 218 222 230 238 244 255 268 277 285 290 295 299 302 309 318 325 332 337 340 343 346
235 227 223 215 185 171 174 175 171 174 181 185 198 217 224 219 217 216 214 216 220 224 230 237 243 251 262 273 280 287 291 294 298 304 313 322 328 335 339 343 347 350
233 226 216 201 183 175 176 179 179 180 185 196 212 221 220 217 218 218 218 222 226 230 236 242 249 257 267 276 281 286 289 293 298 307 316 323 330 337 342 347 350 352
231 222 207 191 183 180 179 180 183 187 196 210 216 217 216 217 219 220 223 227 230 235 242 248 255 262 268 275 280 283 287 291 298 308 316 324 333 342 348 351 353 354
223 210 196 187 185 185 182 182 188 198 208 214 213 213 216 217 220 223 227 232 236 243 249 254 258 263 269 274 277 281 284 289 298 306 314 325 339 348 352 354 355 356
208 193 184 185 188 189 182 180 192 206 210 210 209 214 220 223 226 231 235 240 245 250 254 257 261 264 268 271 273 277 281 287 294 302 314 331 345 352 355 356 357 359
194 184 180 184 190 192 187 185 198 207 206 208 212 219 227 231 235 240 244 248 252 254 256 258 261 263 265 266 268 272 275 281 288 299 319 338 349 354 357 359 360 1
189 185 184 187 192 196 194 194 202 206 207 213 219 226 233 239 243 247 250 253 254 255 256 258 260 259 260 261 262 265 268 275 283 300 325 341 351 356 359 1 3 1
192 189 190 193 197 200 200 201 205 208 211 219 227 234 239 244 249 251 254 255 255 255 256 257 255 253 253 254 254 258 262 269 279 301 329 343 350 356 360 3 3 359
198 196 197 199 203 205 204 204 208 211 215 222 231 239 243 248 251 254 255 255 254 253 253 252 249 247 247 246 247 250 253 260 274 302 331 343 351 358 0 1 359 359
203 204 204 206 208 209 208 209 211 214 217 225 236 242 245 249 252 255 256 254 252 251 249 247 244 242 241 239 239 241 242 250 268 302 331 344 353 358 359 358 357 1
205 208 209 210 211 212 213 214 216 219 223 231 241 246 249 251 254 255 255 252 251 248 245 243 240 237 235 232 231 230 230 242 263 301 328 342 353 356 355 352 357 5
206 209 210 211 213 215 217 219 222 225 230 236 243 248 251 253 254 254 253 251 249 245 242 239 236 232 229 225 225 224 225 235 257 294 317 334 348 347 346 348 357 5
207 209 211 212 214 217 219 222 225 229 233 237 243 248 251 253 254 254 253 251 247 242 238 235 230 226 223 220 220 221 223 232 248 275 290 300 319 320 328 342 354 354
209 211 212 213 215 218 221 225 228 231 234 237 242 248 251 253 254 255 253 250 245 240 235 231 226 222 219 217 217 219 223 228 239 251 253 246 252 278 306 325 335 336
214 214 214 214 216 220 223 227 230 233 236 240 244 248 251 253 254 253 250 245 240 235 231 227 223 219 216 215 216 218 222 227 233 237 232 226 233 249 273 291 298 315
218 218 217 217 219 222 225 229 232 236 239 243 246 248 251 253 253 250 246 240 235 230 227 222 219 216 214 214 216 217 220 227 230 228 224 221 225 235 249 260 269 294
222 222 222 221 223 225 228 231 235 239 242 244 246 249 252 252 251 248 243 238 232 225 220 215 213 213 212 212 213 215 220 226 228 224 220 218 221 226 235 245 249 266
225 225 226 227 228 230 232 236 238 241 243 245 247 249 251 252 252 249 244 237 229 221 213 206 206 209 210 209 210 214 220 225 226 222 216 215 218 222 227 232 235 247
230 231 231 232 233 233 236 239 242 243 245 246 248 250 252 254 254 252 248 240 230 221 210 200 201 206 207 208 210 216 223 226 223 218 213 213 215 220 224 225 226 241
231 234 234 235 235 235 236 241 245 247 247 246 248 251 253 256 257 255 252 245 234 222 207 195 198 205 207 210 215 220 223 224 221 215 210 211 214 217 220 221 221 235
232 236 237 237 237 236 237 241 246 248 249 247 248 250 252 256 258 256 251 245 236 226 209 194 196 205 210 214 219 220 220 220 218 214 210 210 214 216 217 217 220 231
237 240 242 243 242 241 242 244 247 249 250 246 245 250 255 256 256 254 248 242 237 228 210 198 202 210 214 216 217 216 217 218 216 214 211 211 214 217 217 216 220 230
Height
3146 3148 3149 3150 3150 3151 3152 3153 3153 3155 3157 3159 3161 3162 3163 3163 3164 3165 3166 3166 3167 3167 3168 3168 3169 3169 3169 3169 3169 3169 3169 3169 3168 3168 3167 3167 3166 3165 3164 3163 3162 3161
3145 3146 3146 3147 3149 3149 3150 3152 3152 3154 3157 3159 3160 3161 3162 3163 3163 3164 3165 3165 3166 3166 3167 3167 3168 3168 3168 3168 3168 3168 3168 3167 3167 3166 3166 3165 3165 3164 3163 3162 3160 3159
3143 3144 3145 3146 3147 3148 3149 3150 3152 3154 3157 3158 3159 3160 3161 3162 3162 3163 3163 3164 3165 3165 3166 3166 3167 3167 3167 3167 3167 3166 3166 3166 3165 3165 3165 3164 3163 3162 3161 3160 3159 3158
3142 3142 3143 3144 3145 3146 3148 3150 3152 3155 3156 3157 3158 3159 3160 3161 3161 3162 3162 3163 3164 3165 3165 3165 3166 3166 3165 3165 3165 3165 3165 3164 3164 3164 3163 3163 3162 3161 3160 3159 3158 3156
3140 3140 3141 3142 3143 3145 3148 3150 3151 3154 3155 3156 3157 3158 3159 3160 3160 3161 3161 3162 3163 3164 3164 3164 3164 3164 3164 3164 3164 3164 3163 3163 3163 3162 3162 3161 3160 3160 3159 3157 3156 3155
3137 3139 3140 3142 3143 3145 3148 3150 3151 3152 3154 3155 3156 3157 3158 3158 3159 3160 3160 3161 3162 3163 3163 3163 3163 3163 3163 3163 3163 3162 3162 3162 3161 3161 3160 3160 3159 3158 3157 3156 3154 3153
3136 3137 3139 3141 3143 3145 3147 3149 3150 3151 3153 3154 3155 3156 3156 3157 3158 3158 3159 3160 3161 3161 3162 3162 3162 3162 3162 3161 3161 3161 3161 3160 3160 3160 3159 3159 3158 3157 3155 3154 3153 3152
3134 3136 3137 3140 3142 3145 3147 3148 3149 3150 3152 3153 3154 3155 3155 3156 3157 3157 3158 3159 3160 3160 3160 3160 3160 3160 3160 3160 3160 3160 3159 3159 3159 3159 3158 3158 3156 3155 3154 3153 3152 3151
3133 3135 3136 3139 3142 3144 3146 3147 3148 3150 3151 3152 3153 3154 3154 3155 3156 3156 3157 3158 3158 3159 3159 3159 3159 3159 3159 3158 3158 3158 3158 3158 3158 3157 3157 3156 3155 3153 3152 3152 3151 3150
3132 3134 3136 3138 3141 3143 3145 3147 3148 3149 3150 3151 3152 3153 3153 3154 3155 3155 3156 3156 3157 3157 3157 3157 3157 3157 3157 3157 3157 3157 3157 3157 3156 3156 3155 3154 3153 3152 3151 3151 3150 3149
3131 3133 3135 3137 3140 3142 3144 3146 3147 3148 3149 3150 3151 3152 3152 3153 3153 3154 3154 3155 3155 3155 3155 3155 3156 3156 3156 3156 3156 3155 3155 3155 3155 3154 3153 3152 3152 3151 3150 3150 3149 3148
3131 3133 3135 3137 3139 3141 3143 3145 3146 3147 3148 3149 3149 3150 3151 3151 3152 3152 3153 3153 3153 3154 3154 3154 3154 3154 3154 3154 3154 3154 3154 3154 3153 3153 3152 3151 3150 3150 3149 3149 3148 3148
3130 3132 3134 3136 3138 3140 3142 3143 3144 3145 3146 3147 3148 3149 3149 3150 3150 3150 3151 3151 3151 3152 3152 3152 3153 3153 3152 3152 3152 3152 3152 3152 3152 3151 3150 3150 3149 3149 3148 3148 3147 3147
3129 3130 3132 3134 3136 3138 3140 3141 3142 3143 3144 3145 3146 3147 3147 3148 3148 3149 3149 3149 3150 3150 3150 3151 3151 3150 3150 3150 3150 3150 3150 3150 3150 3150 3149 3149 3148 3148 3148 3147 3147 3146
3128 3129 3131 3133 3135 3136 3138 3139 3140 3141 3142 3143 3144 3145 3145 3146 3146 3147 3147 3147 3148 3148 3148 3148 3148 3148 3148 3148 3148 3149 3149 3149 3149 3148 3148 3148 3147 3147 3147 3147 3146 3145
3127 3128 3130 3131 3133 3134 3136 3137 3138 3139 3140 3141 3142 3143 3143 3143 3144 3144 3145 3145 3146 3146 3146 3146 3146 3146 3146 3147 3147 3147 3147 3147 3147 3147 3147 3147 3147 3147 3146 3146 3145 3145
3125 3126 3128 3129 3131 3132 3133 3135 3136 3137 3138 3139 3140 3141 3141 3141 3142 3142 3143 3143 3143 3144 3144 3144 3144 3144 3145 3145 3145 3146 3146 3146 3146 3146 3146 3146 3146 3146 3146 3145 3145 3145
3123 3124 3125 3127 3128 3130 3131 3133 3134 3135 3136 3137 3138 3139 3139 3139 3140 3140 3141 3141 3141 3141 3142 3142 3142 3142 3143 3143 3144 3144 3144 3144 3145 3145 3145 3145 3145 3145 3145 3144 3144 3144
3121 3122 3123 3125 3126 3127 3129 3130 3132 3133 3134 3135 3136 3136 3137 3137 3137 3138 3138 3139 3139 3139 3139 3139 3140 3140 3141 3141 3142 3142 3142 3143 3143 3143 3144 3144 3144 3144 3143 3143 3143 3143
3118 3120 3121 3122 3124 3125 3127 3128 3130 3131 3132 3133 3134 3134 3134 3135 3135 3135 3135 3136 3136 3136 3137 3137 3137 3138 3139 3139 3140 3140 3141 3141 3142 3142 3142 3143 3143 3142 3142 3142 3142 3142
3116 3118 3119 3120 3122 3123 3124 3126 3127 3129 3130 3131 3131 3132 3132 3132 3132 3132 3133 3133 3133 3133 3134 3134 3135 3136 3136 3137 3138 3138 3139 3139 3140 3140 3141 3141 3141 3141 3141 3141 3141 3140
3114 3115 3117 3118 3120 3121 3122 3124 3125 3126 3127 3128 3128 3129 3129 3129 3129 3130 3130 3130 3130 3130 3130 3131 3132 3134 3134 3135 3136 3136 3137 3138 3138 3139 3139 3139 3139 3139 3139 3140 3139 3139
3112 3113 3114 3116 3117 3119 3120 3121 3122 3123 3124 3125 3126 3126 3126 3126 3127 3127 3127 3127 3127 3127 3127 3128 3130 3132 3133 3134 3134 3135 3136 3136 3136 3137 3137 3137 3138 3138 3138 3138 3138 3138
3109 3111 3112 3113 3115 3116 3117 3118 3119 3120 3121 3122 3123 3123 3123 3124 3124 3124 3125 3125 3125 3125 3124 3125 3128 3131 3132 3133 3133 3133 3134 3134 3134 3135 3135 3136 3136 3136 3136 3136 3136 3136
3106 3107 3109 3110 3111 3113 3114 3115 3116 3117 3118 3118 3119 3119 3120 3121 3121 3122 3122 3122 3123 3123 3123 3124 3126 3129 3130 3131 3131 3131 3132 3132 3132 3133 3133 3134 3134 3135 3135 3135 3135 3135
3103 3104 3106 3107 3108 3110 3111 3112 3113 3113 3113 3114 3115 3116 3116 3117 3118 3118 3119 3119 3120 3121 3122 3122 3124 3126 3127 3128 3129 3129 3130 3130 3130 3131 3131 3132 3132 3133 3133 3134 3134 3134